This is the latest recevied weather packets stored in our database for station/object OK2JF-6. If no packets are shown the sender has not sent any weather packets the latest 10 day(s).
| Time | Temp. | Humidity | Pressure | Rain* | Wind** | Luminosity | Snow |
|---|---|---|---|---|---|---|---|
| 1777991043 | 23.33° C | 41% | 1078.9 hPa | 0 mm | - | 55 W/m² | - |
| 1777990937 | 23.33° C | 40% | 1078.6 hPa | 0 mm | - | 85 W/m² | - |
| 1777990503 | 23.33° C | 41% | 1078.5 hPa | 0 mm | - | 268 W/m² | - |
| 1777990023 | 23.33° C | 41% | 1078.8 hPa | 0 mm | - | 292 W/m² | - |
| 1777989783 | 23.33° C | 40% | 1078.7 hPa | 0 mm | - | 302 W/m² | - |
| 1777989303 | 23.33° C | 42% | 1078.7 hPa | 0 mm | - | 307 W/m² | - |
| 1777989123 | 23.33° C | 42% | 1078.8 hPa | 0 mm | - | 293 W/m² | - |
| 1777988643 | 23.33° C | 42% | 1079 hPa | 0 mm | - | 295 W/m² | - |
| 1777987984 | 23.33° C | 42% | 1078.9 hPa | 0 mm | - | 318 W/m² | - |
| 1777987623 | 23.33° C | 41% | 1079.2 hPa | 0 mm | - | 344 W/m² | - |
| 1777987578 | 23.33° C | 41% | 1078.8 hPa | 0 mm | - | 341 W/m² | - |
| 1777987203 | 23.33° C | 40% | 1079.2 hPa | 0 mm | - | 350 W/m² | - |
| 1777986963 | 23.33° C | 41% | 1079 hPa | 0 mm | - | 334 W/m² | - |
| 1777986843 | 23.33° C | 41% | 1079.3 hPa | 0 mm | - | 359 W/m² | - |
| 1777986063 | 23.89° C | 41% | 1079.4 hPa | 0 mm | - | 379 W/m² | - |
| 1777986003 | 23.89° C | 41% | 1079.4 hPa | 0 mm | - | 376 W/m² | - |
| 1777985837 | 23.89° C | 42% | 1079.7 hPa | 0 mm | - | 390 W/m² | - |
| 1777985597 | 23.89° C | 41% | 1079.7 hPa | 0 mm | - | 266 W/m² | - |
| 1777985583 | 23.89° C | 41% | 1079.7 hPa | 0 mm | - | 266 W/m² | - |
| 1777985103 | 23.89° C | 42% | 1079.5 hPa | 0 mm | - | 174 W/m² | - |
| 1777984758 | 23.89° C | 43% | 1079.4 hPa | 0 mm | - | 387 W/m² | - |
| 1777984503 | 23.89° C | 43% | 1079.7 hPa | 0 mm | - | 409 W/m² | - |
| 1777984263 | 23.89° C | 44% | 1079.7 hPa | 0 mm | - | 424 W/m² | - |
| 1777983663 | 23.89° C | 41% | 1079.8 hPa | 0 mm | - | 435 W/m² | - |
| 1777983243 | 23.89° C | 42% | 1079.8 hPa | 0 mm | - | 58 W/m² | - |
* Rain latest hour (hover to see other rain measurements)
** Current wind speed in m/s (hover to see current wind gust speed)